Weather in Torgalyg

Russia / Tyva Republic     51°19′55″N   92°49′26″E
temp.,
°C
wind,
m/s
gust,
m/s
humid.,
%
clouds,
%
prec.,
mm/h
press.,
hPa
HPBL,
m
5 march, fri
fri501:00−14s34750 0.0 103173
04:00−14s33760 0.0 103067
07:00−15ssw237817 0.0 103034
10:00−10wsw127567 0.0 1029213
13:00−7nnw127583 0.0 1027292
16:00−9nw1278100 0.1 1025220
19:00−9sw1179100 0.1 102827
22:00−12sw127355 0.0 103122
6 march, sat
sat601:00−13s227441 0.0 103421
04:00−12s236532 0.0 103422
07:00−13s336156 0.0 103536
10:00−7wnw026942 0.0 1033143
13:00−5nnw127471 0.0 1030184
16:00−5nne117499 0.0 1027147
19:00−11s236366 0.0 102832
22:00−11ssw336322 0.0 102735
7 march, sun
sun701:00−12ssw226433 0.0 102724
04:00−12ssw225944 0.0 102622
07:00−13ssw115750 0.0 102721
10:00−7nne116968 0.0 102778
13:00−6nne228878 0.0 1026153
16:00−7nne229360 0.0 1025102
19:00−11ese018979 0.1 102721
22:00−10s117099 0.0 102921
8 march, mon
mon801:00−11s115471 0.0 103021
04:00−11s115268 0.0 103021
07:00−12s115471 0.0 103122
10:00−7nne11740 0.0 103084
13:00−4n21780 0.0 1027156
16:00−4nne11760 0.0 1025129
19:00−9s22660 0.1 102632
22:00−10s226030 0.0 102629
9 march, tue
tue901:00−11sw116659 0.0 102622
04:00−10ssw116698 0.0 102721
07:00−10w017199 0.0 102921
10:00−6nne117476 0.0 1029105
13:00−5nne219343 0.0 1028190
16:00−4nne219577 0.1 1027155
19:00−8se129285 0.2 102922
22:00−9s227318 0.0 103023